Location: Zagreb
(45.8000°N, 16.0000°E)
Time: 07:54:36
(UTC+01:00)

N. Korean satellite - Pass Details

Date: 10 December 2021
Orbit: 447 x 491 km, 97.3° (Epoch: 23 January)

Event Time Altitude Azimuth Distance (km) Brightness Sun altitude
Rises 04:31:32 0° 25° (NNE) 2,460 10.4 -29.4°
Enters shadow 04:33:50 10° 40° (NE) 1,598 9.6 -29.0°
Exits shadow 04:36:17 23° 85° (E) 1,018 8.8 -28.6°
Maximum altitude 04:36:38 23° 95° (E) 1,006 8.8 -28.6°
Drops below altitude 10° 04:39:22 10° 150° (SSE) 1,575 9.5 -28.1°
Sets 04:41:41 0° 165° (SSE) 2,446 10.4 -27.7°
